Location: Jastrzębia Góra
(54.8312°N, 18.3037°E)
Time: 22:34:36
(UTC+01:00)

ISS - Pass Details

Date: 02 February 2019
Orbit: 403 x 411 km, 51.6° (Epoch: 16 February)

Event Time Altitude Azimuth Distance (km) Brightness Sun altitude
Rises 19:41:34 0° 275° (W) 2,341 1.3 -28.1°
Reaches altitude 10° 19:43:55 10° 261° (W) 1,479 -0.2 -28.4°
Enters shadow 19:44:44 15° 250° (WSW) 1,225 -0.8 -28.5°
